Regional Weather Roundup
Issued by NWS

Home | Current Version | Previous Version | Graphics & Text | Print | Product List | Glossary On
Versions: 1 2 3 4 5 6 7 8 9 10 11 12 13 14 15 16 17 18 19 20 21 22 23 24 25 26 27 28 29 30 31 32 33 34 35 36 37 38 39 40 41 42 43 44 45 46 47 48 49 50
000
ASUS44 KMEG 170810
RWRTN
TENNESSEE HOURLY STATE WEATHER ROUNDUP
NATIONAL WEATHER SERVICE MEMPHIS TN
300 AM CDT THU AUG 17 2017

TNZ002-004-019-021-049-052-054-088>092-170900-
WEST TENNESSEE

CITY           SKY/WX    TMP DP  RH WIND       PRES   REMARKS
MEMPHIS INTL   CLEAR     76  73  91 SW10      29.97F
NWS MEMPHIS      N/A     77 N/A N/A MISG        N/A
JACKSON        CLEAR     76  75  97 S9        29.97F
DYERSBURG      CLEAR     78  75  90 VRB7      29.95S
COVINGTON      CLEAR     77  73  88 SW9G16    29.95S
UNION CITY     CLEAR     77  75  94 S9        29.92F
PARIS          CLEAR     77  75  94 SW9       29.94F
LEXINGTON      CLEAR     75  73  94 S7        29.99R
SELMER         CLOUDY    75  73  94 VRB6G14   30.00S
SAVANNAH       MOCLDY    77  73  88 SW9       30.00S
$$

TNZ008-025-027-028-033-062-065-066-170900-
NORTH MIDDLE TENNESSEE

CITY           SKY/WX    TMP DP  RH WIND       PRES   REMARKS
NASHVILLE      PTCLDY    75  73  93 S6        29.98F
PORTLAND       CLEAR     75  73  94 S6        29.97F
CLARKSVILLE    CLEAR     76  73  91 S7        29.96S
SMYRNA         CLEAR     74  73  97 S5        30.00S
COOKEVILLE     PTCLDY    72  72 100 S5        30.01F
GALLATIN       CLEAR     75  73  94 CALM      30.00S
CROSSVILLE     MOCLDY    71  70  96 CALM      30.07F
$$

TNZ061-075-076-078-094-096-097-170900-
SOUTH MIDDLE TENNESSEE

CITY           SKY/WX    TMP DP  RH WIND       PRES   REMARKS
FAYETTEVILLE   PTCLDY    73  73 100 CALM      30.03S FOG
TULLAHOMA      CLEAR     72  70  94 S3        30.04F
WINCHESTER     CLEAR     73  73 100 SE3       30.04S
MCMINNVILLE    CLEAR     75  75 100 CALM      30.02F
COLUMBIA       CLEAR     75  75 100 SW9       29.99R
SHELBYVILLE    CLEAR     73  73 100 S5        30.01S
$$

TNZ017-018-042-046-047-170900-
NORTHEAST TENNESSEE

CITY           SKY/WX    TMP DP  RH WIND       PRES   REMARKS
TRI CITIES     FOG       70  70 100 CALM      30.07F VSB 1/4
ELIZABETHTON   CLEAR     70  68  94 CALM      30.08S
$$

TNZ012-013-036-069-073-074-170900-
CENTRAL EAST TENNESSEE

CITY           SKY/WX    TMP DP  RH WIND       PRES   REMARKS
KNOXVILLE      CLEAR     74  71  91 W3        30.03S
OAK RIDGE      CLEAR     75  72  90 CALM      30.04F
DOWNTOWN KNOXV   N/A     73  73 100 CALM      30.02S
GATLINBURG     PTCLDY    72  68  88 CALM      30.03S
MORRISTOWN     CLOUDY    72  72 100 CALM      30.04F
$$

TNZ083-085-099-170900-
SOUTHEAST TENNESSEE

CITY           SKY/WX    TMP DP  RH WIND       PRES   REMARKS
CHATTANOOGA    CLEAR     78  74  87 CALM      30.03R
DAYTON         MOSUNNY   73  73 100 CALM      30.02R
$$

SKY/WX REPORTED AS FAIR MEANS FEW OR NO CLOUDS BELOW
12 THOUSAND FEET.





USA.gov is the U.S. government's official web portal to all federal, state and local government web resources and services.